Regional Weather Roundup
Issued by NWS Sioux Falls, SD

Home | Current Version | Previous Version | Text Only | Print | Product List | Glossary On
Versions: 1 2 3 4 5 6 7 8 9 10 11 12 13 14 15 16 17 18 19 20 21 22 23 24 25 26 27 28 29 30 31 32 33 34 35 36 37 38 39 40 41 42 43 44 45 46 47 48 49 50
000
ASUS43 KFSD 190910
RWRFSD

WEATHER ROUNDUP FOR SE SOUTH DAKOTA/SW MINNESOTA/NW IOWA
NATIONAL WEATHER SERVICE SIOUX FALLS SD
300 AM CST THU JAN 19 2017

NOTE: "FAIR" INDICATES FEW OR NO CLOUDS BELOW 12,000 FEET WITH NO
SIGNIFICANT WEATHER AND OR OBSTRUCTIONS TO VISIBILITY.


SDZ038>040-050-052>070-191000-
SOUTHEAST SOUTH DAKOTA

CITY           SKY/WX    TMP DP  RH WIND       PRES   REMARKS
CHAMBERLAIN    CLOUDY    32  31  94 S10       29.64S WCI  24
HURON          CLOUDY    32  31  96 S14       29.66R WCI  22
MADISON          N/A     32  32 100 S9          N/A  WCI  24
MITCHELL       CLOUDY    32  31  96 SE8       29.70S WCI  25
SIOUX FALLS    CLEAR     36  34  92 S10       29.75R
WINNER         FAIR      37  29  72 SW13G22   29.62F
YANKTON        CLEAR     37  32  81 S10       29.72F
$$

MNZ071-072-080-081-089-090-097-098-191000-
SOUTHWEST MINNESOTA

CITY           SKY/WX    TMP DP  RH WIND       PRES   REMARKS
FAIRMONT       CLEAR     34  32  92 S14       29.82S WCI  25
JACKSON        CLEAR     32  32 100 S8        29.80S WCI  25
LUVERNE        CLEAR     32  30  93 S5        29.77S WCI  27
MARSHALL       CLEAR     38  34  85 SW13      29.72S
MONTEVIDEO     CLOUDY    30  30 100 S6        29.73S WCI  24
PIPESTONE      CLEAR     37  34  87 S16       29.73R
REDWOOD FALLS  CLEAR     32  28  85 S9        29.75S WCI  24
TRACY          CLEAR     40  35  84 SW20G25   29.73S
WINDOM           N/A     37  34  87 S10       29.77F
WORTHINGTON    CLEAR     36  32  85 S15       29.77S
$$

IAZ001>003-012>014-020>022-031-032-NEZ013-014-SDZ071-191000-
NORTHWEST IOWA

CITY           SKY/WX    TMP DP  RH WIND       PRES   REMARKS
CHEROKEE       CLEAR     35  34  96 S10       29.83S WCI  27
DENISON        CLEAR     36  34  93 CALM      29.83F FOG
ESTHERVILLE    CLEAR     33  33 100 S13       29.81S WCI  24
LE MARS        CLEAR     37  34  87 S13       29.80S
ORANGE CITY    CLEAR     36  34  93 S7        29.78F
SHELDON        CLEAR     36  36 100 S16       29.77S
SIOUX CITY     CLEAR     34  32  92 SE9       29.81S WCI  27
SPENCER        CLEAR     35  32  88 S10       29.81S WCI  27
STORM LAKE     CLEAR     34  34 100 S14       29.83F WCI  24
$$

ABBREVIATIONS USED IN REMARKS
   TC - TEMPERATURE IN CELSIUS
  WCI - WIND CHILL INDEX
   HX - HEAT INDEX
  VSB - VISIBILITY





USA.gov is the U.S. government's official web portal to all federal, state and local government web resources and services.